Location: *
(18.7197°N, 99.7800°W)
Time: 16:27:23
(UTC+00:00)

Daily predictions for brighter satellites

Satellite Brightness Start Highest point End
(mag) Time Altitude Azimuth Time Altitude Azimuth Time Altitude Azimuth
CZ-3C R/B 0.9 12:02:40 10° WNW 12:04:54 62° N 12:10:57 10° E
Cosmos 1346 Rocket 3.4 12:01:12 10° NNW 12:04:56 35° W 12:08:39 10° SSW
Abrixas rocket 2.0 12:05:18 10° SW 12:08:19 89° N 12:11:19 10° NE
Cosmos 1680 Rocket 3.8 12:04:53 10° SSW 12:09:55 45° WNW 12:14:56 10° N
Meteor 1-18 Rocket 4.3 12:06:09 10° SSW 12:11:33 57° W 12:17:02 10° N
CZ-3 R/B 2.6 12:11:46 10° WNW 12:32:51 86° NNE 12:38:16 10° ESE
